Location: *
(45.4590°N, 16.3650°E)
Time: 06:38:36
(UTC+00:00)

IRS-1A Rocket - Pass Details

Date: 17 January 2020
Orbit: 851 x 931 km, 99.2° (Epoch: 23 February)

Event Time Altitude Azimuth Distance (km) Brightness Sun altitude
Rises 17:56:28 0° 158° (SSE) 3,551 7.3 -23.6°
Reaches altitude 10° 17:58:54 10° 156° (SSE) 2,604 6.6 -24.0°
Maximum altitude 18:04:42 76° 73° (ENE) 937 4.2 -25.0°
Drops below altitude 10° 18:10:25 10° 348° (NNW) 2,571 6.8 -26.0°
Sets 18:12:48 0° 347° (NNW) 3,503 7.5 -26.4°
